Welcome to The Terminal

Map Downloads:

134 maps found
Name Type Author Date Downloads Rating
Amaplanca II TSC Gwizz 09/10/02 1670 50% (1)
Apple War Ooze TSC Gwizz 21/05/02 1951 0% (0)
Arboria TSC Anders Robert Pilgaard 21/05/02 1829 0% (0)
Atlantis National Railways TSC Anders Robert Pilgaard 21/05/02 3073 100% (2)
Atoll RRT2 Gwizz 21/05/02 1629 70% (2)
Atoll Temple RRT2 Gwizz 21/05/02 1396 0% (0)
Auf Der Flucht RRT2 Robert the "porky" 21/05/02 1756 75% (2)
Aurelia 1862 TSC Anders Robert Pilgaard 21/05/02 1574 0% (0)
Bex TSC Adam 21/05/02 1396 0% (0)
Big Apple II RRT2 PopTop Software 21/05/02 2308 80% (1)
Big Apple IIe TSC Steve Lorenz 21/05/02 1352 0% (0)
Borduria TSC Anders Robert Pilgaard 21/05/02 1555 0% (0)
Britannia RRT2 J Sylvest and GS Bales 21/05/02 1902 0% (0)
Bulvanian Petroleoum TSC Toni Ronkko 24/09/02 2067 50% (2)
Changes In Transportation RRT2 Brian Duarte 21/05/02 2189 0% (0)
Cheryls Valley RRT2 Tigger 21/05/02 1546 0% (0)
Closa RRT2 Darrell 21/05/02 1381 0% (0)
Coal Country RRT2 Sirian 21/05/02 2317 0% (0)
Coast Line TSC Lars Maischak 15/06/03 1532 100% (1)
Colorz! RRT2 Bill Ingram 21/05/02 1724 85% (2)
Copalis RRT2 Mike Burke & Jamie Burnett 21/05/02 1769 95% (2)
Corsairland RRT2 Kent Powderly 21/05/02 1944 0% (0)
County Sodenstein TSC Lars Maischak 15/06/03 1160 60% (1)
Darkmere RRT2 Ian Lewis 21/05/02 1652 0% (0)
Docklands RRT2 Jonathon James Tan 21/05/02 1835 20% (1)
DragonIsle RRT2 Unknown 21/05/02 1693 0% (0)
Edland RRT2 Eddie Bangor 21/05/02 1976 100% (1)
Euphoria TSC PopTop Software 21/05/02 1340 90% (1)
Fantasia TSC Anders Robert Pilgaard 21/05/02 1316 0% (0)
File Island TSC Jimmy Chau 09/12/05 3081 90% (1)
Final Fantasy 7 TSC Matthew Willis 21/05/02 1724 0% (0)
Fisland RRT2 Dave Donaldson 21/05/02 1910 100% (1)
Free Four All RRT2 Sirian 21/05/02 1729 100% (1)
Gateway to Paradise TSC Matthew Asnip 21/05/02 2100 0% (0)
Gateway to Paradise (Light) TSC Matthew Asnip 21/05/02 1032 0% (0)
Gold Rush! RRT2 Andrew Mark Schwartz 21/05/02 2248 0% (0)
Golden Fjords Scenic RRT2 Kent Powderly 21/05/02 1674 0% (0)
Grand Prix RRT2 Sirian 21/05/02 2060 89% (7)
Great Crater RRT2 Kent Powderly 21/05/02 2346 90% (1)
Green Mars RRT2 Gonzo 21/05/02 2260 0% (0)
Grosetania RRT2 Whitey 21/05/02 1502 0% (0)
Hail Sevastia TSC David Masters 21/05/02 1438 45% (2)
Hibirnia TSC Anders Robert Pilgaard 21/05/02 1383 0% (0)
High Desert RRT2 Dave 21/05/02 2270 0% (0)
High Desert 2 TSC A. Gracier 21/05/02 1610 0% (0)
Industrial Fixer Upper TSC Gwizz 21/05/02 1416 70% (1)
Island Conquest TSC James Stevens 21/05/02 1274 0% (0)
Kingdom of Tara TSC Anders Robert Pilgaard 21/05/02 1488 30% (1)
Kua'Apuanii TSC PopTop Software 21/05/02 1178 0% (0)
Lagoria TSC Anders Robert Pilgaard 21/05/02 3642 0% (0)
Lala-land TSC Robbie Langton 19/04/04 1531 0% (0)
Lusitania TSC Anders Robert Pilgaard 21/05/02 1544 50% (1)
Mad King Ed TSC Eddie Bangor 21/05/02 1441 90% (1)
Mad King Ed RRT2 Eddie Bangor 21/05/02 1395 0% (0)
Majode TSC Mark Confer 20/02/04 1559 100% (2)
Making The Grade RRT2 Sirian 21/05/02 1842 100% (2)
Making The Grade RRT2 Sirian 21/05/02 1163 0% (0)
Mars RRT2 James Stevens 21/05/02 1667 0% (0)
Mars TSC James Stevens 21/05/02 1303 0% (0)
Mason County RRT2 Mike Gasaway 21/05/02 1463 0% (0)
Metro31-H RRT2 Unknown 21/05/02 1988 0% (0)
Middle Earth RRT2 Kent Powderly 21/05/02 4148 0% (0)
Military 12 TSC Kraellin 21/05/02 1829 30% (1)
MongoIsland TSC Anders Robert Pilgaard 21/05/02 1128 0% (0)
Montania 1858 TSC Anders Robert Pilgaard 21/05/02 1393 0% (0)
Morietzia RRT2 Unknown 21/05/02 1565 0% (0)
Mtron '99 TSC James Stevens 21/05/02 1077 0% (0)
New Eden TSC Marco Stefanutti 21/05/02 2466 0% (0)
Oceania RRT2 Eckhard Flor 21/05/02 1951 0% (0)
Oceania 1862 TSC Anders Robert Pilgaard 21/05/02 1441 0% (0)
Ourcadia RRT2 Rodolphe Bourgouin 21/05/02 1241 0% (0)
Overpass TSC Steve Lorenz 21/05/02 1007 0% (0)
Overpass & Tunnels TSC David Gross 21/05/02 1400 0% (0)
Paradise 2000 TSC Rick Bottens 21/05/02 1255 0% (0)
Parniath Bridge TSC PopTop Software 21/05/02 1277 0% (0)
Party Machines TSC Lars Maischak 21/05/02 1581 80% (1)
Patagonia RRT2 [pro] 21/05/02 1708 0% (0)
Peninsula RRT2 Anders Robert Pilgaard 21/05/02 1506 0% (0)
Peninsula 2 TSC Anders Robert Pilgaard 03/06/02 2202 0% (0)
Quickie 2A TSC Unknown 21/05/02 935 0% (0)
Royal Empress TSC Jon Calon 21/05/02 1391 0% (0)
Sarelia TSC Anders Robert Pilgaard 21/05/02 1815 80% (1)
Something Trekky TSC James Stevens 21/05/02 1066 0% (0)
Starship Troopers TSC Steve Lorenz 21/05/02 2013 100% (1)
Strange Glue RRT2 James Stevens 21/05/02 1308 0% (0)
Sylvania TSC Anders Robert Pilgaard 21/05/02 2319 0% (0)
Tanagore Island TSC David Masters 21/05/02 1272 0% (0)
Taresia TSC Anders Robert Pilgaard 03/06/02 1095 0% (0)
Tatooine RRT2 Andy Moorer 21/05/02 1964 0% (0)
Tehos RRT2 Juho Tiettinen 15/06/03 1311 0% (0)
TehoWorld RRT2 Juho Tiettinen 15/06/03 2486 0% (0)
Terra Aqueos RRT2 James Wellham 21/05/02 1692 100% (1)
Tester TSC Steve Lorenz 21/05/02 1189 0% (0)
Tester RRT2 Steve Lorenz 21/05/02 1234 0% (0)
The Darkening 1 TSC James Stevens 21/05/02 1451 80% (1)
The Darkening 2 TSC James Stevens 21/05/02 1097 10% (1)
The Darkening 3: Unite the States TSC James Stevens 21/05/02 1396 90% (1)
The Darkening 4: Floods Legacy TSC James Stevens 21/05/02 1252 0% (0)
The Iron Spike TSC Overlord 15/06/03 2406 0% (0)
The Main Vein RRT2 Derek D 21/05/02 1377 0% (0)
The Mines RRT2 Tony J Frank 21/05/02 2031 0% (0)
The National World TSC Matthew Tam 21/05/02 1534 0% (0)
The World Map TSC Matthew Tam 21/05/02 2335 0% (0)
Tidland TSC James E. Petts 21/05/02 1019 0% (0)
Tolnedran Imperial Railway TSC Richard Lally 21/05/02 1718 0% (0)
Towers Of Hell TSC James Stevens 21/05/02 1013 0% (0)
Train Island RRT2 Jonathan 21/05/02 1273 0% (0)
Treasure Island RRT2 Unknown 21/05/02 1959 0% (0)
Utopia RRT2 Cecil Harper 21/05/02 1867 0% (0)
Utopia TSC Anders Robert Pilgaard 21/05/02 1317 0% (0)
Utopia 2 TSC Anders Robert Pilgaard 21/05/02 1485 0% (0)
Venturia TSC Anders Robert Pilgaard 03/06/02 2377 0% (0)
Vulcano RRT2 Martijn ter Haar 21/05/02 1253 0% (0)
Witch's Route TSC Charles Swain 21/05/02 1128 10% (1)
WNE 01: Map One RRT2 James Stevens 21/05/02 1452 0% (0)
WNE 02: Switzlerland 2099 RRT2 James Stevens 21/05/02 1828 0% (0)
WNE 03: Appleasia RRT2 James Stevens 21/05/02 1418 0% (0)
WNE 04: Begin Again RRT2 James Stevens 21/05/02 1448 0% (0)
WNE 05: Mars Corp RRT2 James Stevens 21/05/02 1344 0% (0)
WNE 06: The Freedom Movement RRT2 James Stevens 21/05/02 1167 0% (0)
WNE 07: Titan: The New Earth? RRT2 James Stevens 21/05/02 1737 0% (0)
WNE 08: Titan: Last Rights RRT2 James Stevens 21/05/02 1421 30% (1)
WNE 09: Erase/Rewind RRT2 James Stevens 21/05/02 1535 0% (0)
WNE 10: Reunification RRT2 James Stevens 21/05/02 1192 0% (0)
WNE 11: Future's End TSC James Stevens 21/05/02 1260 0% (0)
WNE 12: Test Of Time TSC James Stevens 21/05/02 1306 75% (2)
WNE 13: The Awakening RRT2 James Stevens 21/05/02 1289 0% (0)
WNE 14: The Money Pit RRT2 James Stevens 21/05/02 1356 0% (0)
WNE 15: Scorched Earth RRT2 James Stevens 21/05/02 1442 0% (0)
WNE 16: The Launch RRT2 James Stevens 21/05/02 1365 0% (0)
WNE 17: Rising Star RRT2 James Stevens 21/05/02 1096 0% (0)
WNE 18: Cold War RRT2 James Stevens 21/05/02 1353 0% (0)
WNE 19: For Gorwin's Honour RRT2 James Stevens 21/05/02 1413 0% (0)
WNE 20: From Hell's Heart... TSC James Stevens 21/05/02 1072 0% (0)

Site created April 23, 1998. © Jesse Reid, All Rights Reserved, 2003.